| time (UTC) | temp F | wind direction | speed MPH | gust MPH | rain 1hr in | rain 24hr in | rain mn in | humidity % | barometer mb |
| 20260901095011 | 79 | 195 | 0.0 | 0.0 | 0.00 | 0.00 | 0.00 | 94 | 1010.5 |
| 20260901094510 | 79 | 195 | 0.0 | 0.0 | 0.00 | 0.00 | 0.00 | 94 | 1010.6 |
| 20260901094008 | 79 | 195 | 0.0 | 0.0 | 0.00 | 0.00 | 0.00 | 94 | 1010.7 |
| 20260901093506 | 79 | 195 | 0.0 | 0.0 | 0.00 | 0.00 | 0.00 | 94 | 1010.7 |
| 20260901093010 | 78 | 198 | 0.0 | 0.0 | 0.00 | 0.00 | 0.00 | 94 | 1010.8 |
| 20260901093004 | 79 | 195 | 0.0 | 0.0 | 0.00 | 0.00 | 0.00 | 94 | 1010.8 |
| 20260901092005 | 79 | 198 | 0.0 | 0.0 | 0.00 | 0.00 | 0.00 | 94 | 1010.7 |
| 20260901091504 | 79 | 198 | 0.0 | 0.0 | 0.00 | 0.00 | 0.00 | 94 | 1010.8 |
| 20260901091001 | 79 | 198 | 0.0 | 0.0 | 0.00 | 0.00 | 0.00 | 94 | 1010.8 |
| 20260901090501 | 78 | 198 | 0.0 | 0.0 | 0.00 | 0.00 | 0.00 | 94 | 1010.9 |
| 20260901090001 | 78 | 198 | 0.0 | 0.0 | 0.00 | 0.00 | 0.00 | 93 | 1010.9 |
| 20260901085501 | 79 | 198 | 0.0 | 0.0 | 0.00 | 0.00 | 0.00 | 93 | 1010.8 |
| 20260901084959 | 79 | 198 | 0.0 | 0.0 | 0.00 | 0.00 | 0.00 | 92 | 1010.8 |
| 20260901084458 | 79 | 198 | 0.0 | 0.0 | 0.00 | 0.00 | 0.00 | 92 | 1010.9 |
| 20260901083953 | 79 | 198 | 0.0 | 0.0 | 0.00 | 0.00 | 0.00 | 92 | 1010.9 |
| 20260901083451 | 79 | 198 | 0.0 | 0.0 | 0.00 | 0.00 | 0.00 | 92 | 1011.0 |
| 20260901082950 | 80 | 198 | 0.0 | 0.0 | 0.00 | 0.00 | 0.00 | 92 | 1011.0 |
| 20260901082447 | 80 | 198 | 0.0 | 0.0 | 0.00 | 0.00 | 0.00 | 92 | 1010.9 |
| 20260901081947 | 80 | 198 | 0.0 | 0.0 | 0.00 | 0.00 | 0.00 | 92 | 1010.9 |
| 20260901081446 | 80 | 198 | 0.0 | 0.0 | 0.00 | 0.00 | 0.00 | 92 | 1010.8 |
| 20260901080943 | 80 | 198 | 0.0 | 0.0 | 0.00 | 0.00 | 0.00 | 92 | 1010.9 |
| 20260901080443 | 80 | 198 | 0.0 | 1.0 | 0.00 | 0.00 | 0.00 | 92 | 1011.0 |
| 20260901075943 | 80 | 198 | 0.0 | 1.0 | 0.00 | 0.00 | 0.00 | 92 | 1011.0 |
| 20260901075441 | 80 | 195 | 0.0 | 0.0 | 0.00 | 0.00 | 0.00 | 92 | 1011.1 |
| 20260901074942 | 80 | 195 | 0.0 | 0.0 | 0.00 | 0.00 | 0.00 | 92 | 1011.1 |
| 20260901074434 | 79 | 195 | 0.0 | 0.0 | 0.00 | 0.00 | 0.00 | 93 | 1011.2 |
| 20260901073932 | 79 | 195 | 0.0 | 0.0 | 0.00 | 0.00 | 0.00 | 93 | 1011.1 |
| 20260901073431 | 79 | 195 | 0.0 | 0.0 | 0.00 | 0.00 | 0.00 | 93 | 1011.1 |
| 20260901072928 | 79 | 195 | 0.0 | 0.0 | 0.00 | 0.00 | 0.00 | 93 | 1011.1 |
| 20260901072429 | 79 | 195 | 0.0 | 0.0 | 0.00 | 0.00 | 0.00 | 93 | 1011.1 |
| 20260901071922 | 79 | 195 | 0.0 | 0.0 | 0.00 | 0.00 | 0.00 | 93 | 1011.2 |
| 20260901071422 | 79 | 195 | 0.0 | 0.0 | 0.00 | 0.00 | 0.00 | 93 | 1011.2 |
| 20260901070921 | 79 | 195 | 0.0 | 0.0 | 0.00 | 0.00 | 0.00 | 92 | 1011.4 |
| 20260901070423 | 79 | 195 | 0.0 | 0.0 | 0.00 | 0.00 | 0.00 | 92 | 1011.4 |
| 20260901065923 | 79 | 195 | 0.0 | 0.0 | 0.00 | 0.00 | 0.00 | 92 | 1011.3 |
| 20260901065423 | 79 | 195 | 0.0 | 0.0 | 0.00 | 0.00 | 0.00 | 92 | 1011.3 |
| 20260901064917 | 80 | 195 | 0.0 | 0.0 | 0.00 | 0.00 | 0.00 | 92 | 1011.2 |
| 20260901064418 | 80 | 195 | 0.0 | 0.0 | 0.00 | 0.00 | 0.00 | 92 | 1011.2 |
| 20260901063918 | 80 | 195 | 0.0 | 0.0 | 0.00 | 0.00 | 0.00 | 92 | 1011.3 |
| 20260901063418 | 80 | 195 | 0.0 | 0.0 | 0.00 | 0.00 | 0.00 | 91 | 1011.2 |
| 20260901062917 | 80 | 195 | 0.0 | 0.0 | 0.00 | 0.00 | 0.00 | 92 | 1011.3 |
| 20260901062649 | 80 | 195 | 0.0 | 0.0 | 0.00 | 0.00 | 0.00 | 91 | 1011.4 |
| 20260901061913 | 80 | 195 | 0.0 | 0.0 | 0.00 | 0.00 | 0.00 | 91 | 1011.5 |
| 20260901061412 | 80 | 195 | 0.0 | 0.0 | 0.00 | 0.00 | 0.00 | 92 | 1011.4 |
| 20260901060910 | 79 | 174 | 0.0 | 0.0 | 0.00 | 0.00 | 0.00 | 92 | 1011.4 |
| 20260901060408 | 79 | 132 | 0.0 | 0.0 | 0.00 | 0.00 | 0.00 | 91 | 1011.5 |
| 20260901055909 | 80 | 132 | 0.0 | 0.0 | 0.00 | 0.00 | 0.00 | 91 | 1011.5 |
| 20260901055408 | 80 | 132 | 0.0 | 0.0 | 0.00 | 0.00 | 0.00 | 91 | 1011.5 |
| 20260901054903 | 80 | 132 | 0.0 | 0.0 | 0.00 | 0.00 | 0.00 | 91 | 1011.4 |
| 20260901054406 | 80 | 132 | 0.0 | 0.0 | 0.00 | 0.00 | 0.00 | 90 | 1011.4 |
| 20260901054401 | 80 | 132 | 0.0 | 0.0 | 0.00 | 0.00 | 0.00 | 91 | 1011.4 |
| 20260901053357 | 80 | 132 | 0.0 | 0.0 | 0.00 | 0.00 | 0.00 | 90 | 1011.3 |
| 20260901052857 | 80 | 132 | 0.0 | 0.0 | 0.00 | 0.00 | 0.00 | 90 | 1011.2 |
| 20260901052355 | 80 | 132 | 0.0 | 0.0 | 0.00 | 0.00 | 0.00 | 90 | 1011.2 |
| 20260901051856 | 80 | 132 | 0.0 | 0.0 | 0.00 | 0.00 | 0.00 | 90 | 1011.3 |
| 20260901051625 | 80 | 132 | 0.0 | 0.0 | 0.00 | 0.00 | 0.00 | 89 | 1011.2 |
| 20260901050855 | 80 | 132 | 0.0 | 1.0 | 0.00 | 0.00 | 0.00 | 89 | 1011.1 |
| 20260901050353 | 80 | 132 | 0.0 | 1.0 | 0.00 | 0.00 | 0.00 | 89 | 1011.1 |
| 20260901050124 | 81 | 132 | 0.0 | 1.0 | 0.00 | 0.00 | 0.00 | 89 | 1010.9 |
| 20260901045356 | 81 | 132 | 0.0 | 2.0 | 0.00 | 0.00 | 0.00 | 89 | 1010.9 |
| 20260901045351 | 81 | 132 | 0.0 | 1.0 | 0.00 | 0.00 | 0.00 | 89 | 1010.9 |
| 20260901044849 | 81 | 132 | 0.0 | 2.0 | 0.00 | 0.00 | 0.00 | 89 | 1010.9 |
| 20260901043846 | 81 | 123 | 0.0 | 1.0 | 0.00 | 0.00 | 0.00 | 88 | 1010.9 |
| 20260901043342 | 81 | 131 | 0.0 | 1.0 | 0.00 | 0.00 | 0.00 | 88 | 1010.9 |
| 20260901042841 | 81 | 131 | 0.0 | 1.0 | 0.00 | 0.00 | 0.00 | 88 | 1010.8 |
| 20260901042342 | 81 | 131 | 0.0 | 1.0 | 0.00 | 0.00 | 0.00 | 88 | 1010.9 |
| 20260901041842 | 82 | 70 | 1.0 | 3.0 | 0.00 | 0.00 | 0.00 | 88 | 1010.9 |
| 20260901041340 | 82 | 70 | 1.0 | 3.0 | 0.00 | 0.00 | 0.00 | 87 | 1011.0 |
| 20260901040839 | 82 | 100 | 1.0 | 3.0 | 0.00 | 0.00 | 0.00 | 87 | 1011.0 |
| 20260901040335 | 82 | 91 | 1.0 | 3.0 | 0.00 | 0.00 | 0.00 | 87 | 1011.0 |
| 20260901035841 | 82 | 90 | 1.0 | 2.0 | 0.00 | 0.00 | 0.00 | 86 | 1010.9 |
| 20260901035834 | 82 | 75 | 1.0 | 3.0 | 0.00 | 0.00 | 0.00 | 86 | 1011.0 |
| 20260901034834 | 83 | 91 | 1.0 | 2.0 | 0.00 | 0.00 | 0.00 | 85 | 1010.9 |
| 20260901034334 | 83 | 77 | 1.0 | 2.0 | 0.00 | 0.00 | 0.00 | 85 | 1011.0 |
| 20260901033833 | 83 | 81 | 0.0 | 2.0 | 0.00 | 0.00 | 0.00 | 85 | 1010.8 |
| 20260901033331 | 82 | 77 | 0.0 | 2.0 | 0.00 | 0.00 | 0.00 | 86 | 1010.9 |
| 20260901032831 | 82 | 123 | 0.0 | 1.0 | 0.00 | 0.00 | 0.00 | 86 | 1010.8 |
| 20260901032330 | 82 | 123 | 0.0 | 0.0 | 0.00 | 0.00 | 0.00 | 86 | 1010.8 |
| 20260901031831 | 83 | 123 | 0.0 | 1.0 | 0.00 | 0.00 | 0.00 | 85 | 1010.7 |
| 20260901031328 | 83 | 123 | 0.0 | 2.0 | 0.00 | 0.00 | 0.00 | 85 | 1010.6 |
| 20260901030827 | 83 | 114 | 0.0 | 2.0 | 0.00 | 0.00 | 0.00 | 85 | 1010.5 |
| 20260901030323 | 83 | 96 | 0.0 | 2.0 | 0.00 | 0.00 | 0.00 | 85 | 1010.5 |
| 20260901025824 | 83 | 78 | 1.0 | 2.0 | 0.00 | 0.00 | 0.00 | 84 | 1010.4 |
| 20260901025323 | 83 | 113 | 1.0 | 2.0 | 0.00 | 0.00 | 0.00 | 84 | 1010.4 |
| 20260901024824 | 83 | 118 | 0.0 | 2.0 | 0.00 | 0.00 | 0.00 | 84 | 1010.3 |
| 20260901024553 | 83 | 96 | 0.0 | 2.0 | 0.00 | 0.00 | 0.00 | 85 | 1010.3 |
| 20260901023822 | 83 | 110 | 0.0 | 2.0 | 0.00 | 0.00 | 0.00 | 85 | 1010.1 |
| 20260901023320 | 83 | 134 | 0.0 | 1.0 | 0.00 | 0.00 | 0.00 | 85 | 1010.0 |
| 20260901022822 | 83 | 134 | 0.0 | 1.0 | 0.00 | 0.00 | 0.00 | 84 | 1009.9 |
| 20260901022553 | 83 | 129 | 0.0 | 1.0 | 0.00 | 0.00 | 0.00 | 84 | 1009.8 |
| 20260901022050 | 84 | 129 | 0.0 | 1.0 | 0.00 | 0.00 | 0.00 | 83 | 1009.8 |
| 20260901021547 | 84 | 129 | 0.0 | 1.0 | 0.00 | 0.00 | 0.00 | 83 | 1009.8 |
| 20260901020816 | 84 | 129 | 0.0 | 1.0 | 0.00 | 0.00 | 0.00 | 82 | 1009.8 |
| 20260901020319 | 84 | 129 | 0.0 | 2.0 | 0.00 | 0.00 | 0.00 | 81 | 1009.7 |
| 20260901020313 | 84 | 129 | 0.0 | 2.0 | 0.00 | 0.00 | 0.00 | 82 | 1009.7 |
| 20260901015313 | 85 | 129 | 0.0 | 2.0 | 0.00 | 0.00 | 0.00 | 80 | 1009.7 |
| 20260901014812 | 85 | 84 | 0.0 | 2.0 | 0.00 | 0.00 | 0.00 | 80 | 1009.7 |
| 20260901014311 | 85 | 104 | 0.0 | 3.0 | 0.00 | 0.00 | 0.00 | 79 | 1009.7 |
| 20260901013809 | 85 | 94 | 0.0 | 3.0 | 0.00 | 0.00 | 0.00 | 79 | 1009.7 |
| 20260901013536 | 85 | 96 | 1.0 | 3.0 | 0.00 | 0.00 | 0.00 | 78 | 1009.7 |
| 20260901012803 | 85 | 97 | 1.0 | 2.0 | 0.00 | 0.00 | 0.00 | 78 | 1009.7 |
| 20260901012306 | 86 | 96 | 1.0 | 3.0 | 0.00 | 0.00 | 0.00 | 77 | 1009.7 |
| 20260901011804 | 86 | 107 | 1.0 | 3.0 | 0.00 | 0.00 | 0.00 | 77 | 1009.7 |
| 20260901011304 | 86 | 94 | 1.0 | 4.0 | 0.00 | 0.00 | 0.00 | 76 | 1009.7 |
| 20260901010805 | 86 | 103 | 1.0 | 4.0 | 0.00 | 0.00 | 0.00 | 76 | 1009.6 |
| 20260901010256 | 86 | 122 | 1.0 | 3.0 | 0.00 | 0.00 | 0.00 | 75 | 1009.6 |
| 20260901005757 | 86 | 115 | 1.0 | 2.0 | 0.00 | 0.00 | 0.00 | 74 | 1009.7 |
| 20260901005257 | 86 | 94 | 1.0 | 3.0 | 0.00 | 0.00 | 0.00 | 73 | 1009.7 |
| 20260901005029 | 87 | 134 | 1.0 | 3.0 | 0.00 | 0.00 | 0.00 | 73 | 1009.8 |
| 20260901004258 | 87 | 101 | 1.0 | 3.0 | 0.00 | 0.00 | 0.00 | 73 | 1009.6 |
| 20260901003758 | 87 | 118 | 1.0 | 4.0 | 0.00 | 0.00 | 0.00 | 72 | 1009.7 |
| 20260901003251 | 87 | 129 | 2.0 | 4.0 | 0.00 | 0.00 | 0.00 | 72 | 1009.8 |
| 20260901002752 | 87 | 77 | 2.0 | 4.0 | 0.00 | 0.00 | 0.00 | 71 | 1009.8 |
| 20260901002253 | 87 | 113 | 1.0 | 4.0 | 0.00 | 0.00 | 0.00 | 71 | 1009.8 |
| 20260901001752 | 87 | 130 | 2.0 | 6.0 | 0.00 | 0.00 | 0.00 | 71 | 1009.7 |
| 20260901001252 | 87 | 77 | 2.0 | 6.0 | 0.00 | 0.00 | 0.00 | 71 | 1009.7 |
| 20260901000752 | 87 | 104 | 2.0 | 6.0 | 0.00 | 0.00 | 0.00 | 71 | 1009.7 |
| 20260901000250 | 88 | 163 | 1.0 | 5.0 | 0.00 | 0.00 | 0.00 | 70 | 1009.8 |
| 20260831235748 | 88 | 79 | 2.0 | 5.0 | 0.00 | 0.00 | 0.00 | 71 | 1009.7 |
| 20260831235247 | 88 | 82 | 1.0 | 4.0 | 0.00 | 0.00 | 0.00 | 71 | 1009.7 |
| 20260831234750 | 88 | 79 | 1.0 | 5.0 | 0.00 | 0.00 | 0.00 | 72 | 1009.8 |
| 20260831234246 | 89 | 74 | 1.0 | 5.0 | 0.00 | 0.00 | 0.00 | 72 | 1009.8 |
| 20260831233746 | 89 | 118 | 1.0 | 4.0 | 0.00 | 0.00 | 0.00 | 72 | 1009.7 |
| 20260831233244 | 89 | 131 | 2.0 | 5.0 | 0.00 | 0.00 | 0.00 | 72 | 1009.7 |
| 20260831232744 | 89 | 115 | 2.0 | 5.0 | 0.00 | 0.00 | 0.00 | 71 | 1009.7 |
| 20260831232242 | 89 | 67 | 2.0 | 5.0 | 0.00 | 0.00 | 0.00 | 70 | 1009.7 |
| 20260831231743 | 90 | 86 | 2.0 | 5.0 | 0.00 | 0.00 | 0.00 | 70 | 1009.6 |
| 20260831231511 | 90 | 100 | 2.0 | 5.0 | 0.00 | 0.00 | 0.00 | 68 | 1009.6 |
| 20260831230741 | 90 | 148 | 2.0 | 5.0 | 0.00 | 0.00 | 0.00 | 69 | 1009.7 |
| 20260831230236 | 90 | 77 | 2.0 | 6.0 | 0.00 | 0.00 | 0.00 | 69 | 1009.7 |
| 20260831225736 | 90 | 108 | 2.0 | 6.0 | 0.00 | 0.00 | 0.00 | 70 | 1009.6 |
| 20260831225233 | 90 | 79 | 3.0 | 7.0 | 0.00 | 0.00 | 0.00 | 70 | 1009.7 |
| 20260831224734 | 90 | 141 | 2.0 | 7.0 | 0.00 | 0.00 | 0.00 | 70 | 1009.7 |
| 20260831224234 | 90 | 84 | 3.0 | 9.0 | 0.00 | 0.00 | 0.00 | 70 | 1009.7 |
| 20260831223735 | 90 | 122 | 3.0 | 9.0 | 0.00 | 0.00 | 0.00 | 70 | 1009.7 |
| 20260831223228 | 91 | 109 | 3.0 | 6.0 | 0.00 | 0.00 | 0.00 | 69 | 1009.8 |
| 20260831222725 | 91 | 68 | 2.0 | 7.0 | 0.00 | 0.00 | 0.00 | 67 | 1009.8 |
| 20260831222226 | 92 | 82 | 3.0 | 7.0 | 0.00 | 0.00 | 0.00 | 66 | 1009.9 |
| 20260831221725 | 92 | 118 | 3.0 | 8.0 | 0.00 | 0.00 | 0.00 | 64 | 1009.9 |
| 20260831221226 | 92 | 116 | 3.0 | 8.0 | 0.00 | 0.00 | 0.00 | 63 | 1009.8 |
| 20260831220958 | 93 | 101 | 4.0 | 8.0 | 0.00 | 0.00 | 0.00 | 63 | 1009.8 |
| 20260831220220 | 93 | 101 | 3.0 | 8.0 | 0.00 | 0.00 | 0.00 | 62 | 1009.8 |
| 20260831215721 | 93 | 83 | 3.0 | 6.0 | 0.00 | 0.00 | 0.00 | 61 | 1009.8 |
| 20260831215219 | 93 | 88 | 3.0 | 7.0 | 0.00 | 0.00 | 0.00 | 61 | 1009.9 |
| 20260831214950 | 93 | 75 | 3.0 | 7.0 | 0.00 | 0.00 | 0.00 | 59 | 1009.9 |
| 20260831214219 | 93 | 101 | 3.0 | 7.0 | 0.00 | 0.00 | 0.00 | 58 | 1010.1 |
| 20260831213719 | 93 | 79 | 3.0 | 7.0 | 0.00 | 0.00 | 0.00 | 59 | 1010.0 |
| 20260831213219 | 93 | 79 | 2.0 | 7.0 | 0.00 | 0.00 | 0.00 | 59 | 1010.1 |
| 20260831212948 | 93 | 94 | 3.0 | 10.0 | 0.00 | 0.00 | 0.00 | 61 | 1010.1 |
| 20260831212218 | 93 | 84 | 4.0 | 10.0 | 0.00 | 0.00 | 0.00 | 61 | 1010.2 |
| 20260831211716 | 93 | 50 | 4.0 | 10.0 | 0.00 | 0.00 | 0.00 | 61 | 1010.2 |
| 20260831211217 | 93 | 101 | 4.0 | 9.0 | 0.00 | 0.00 | 0.00 | 60 | 1010.2 |
| 20260831210717 | 94 | 89 | 4.0 | 10.0 | 0.00 | 0.00 | 0.00 | 59 | 1010.3 |
| 20260831210218 | 94 | 80 | 5.0 | 10.0 | 0.00 | 0.00 | 0.00 | 58 | 1010.3 |
| 20260831205718 | 95 | 84 | 4.0 | 8.0 | 0.00 | 0.00 | 0.00 | 58 | 1010.4 |
| 20260831205217 | 96 | 89 | 4.0 | 10.0 | 0.00 | 0.00 | 0.00 | 56 | 1010.5 |
| 20260831204717 | 96 | 101 | 3.0 | 10.0 | 0.00 | 0.00 | 0.00 | 56 | 1010.4 |
| 20260831204218 | 96 | 33 | 3.0 | 8.0 | 0.00 | 0.00 | 0.00 | 56 | 1010.5 |
| 20260831203715 | 96 | 65 | 3.0 | 8.0 | 0.00 | 0.00 | 0.00 | 58 | 1010.5 |
| 20260831203215 | 96 | 113 | 2.0 | 6.0 | 0.00 | 0.00 | 0.00 | 57 | 1010.5 |
| 20260831202715 | 96 | 342 | 3.0 | 7.0 | 0.00 | 0.00 | 0.00 | 59 | 1010.6 |
| 20260831202447 | 96 | 101 | 3.0 | 7.0 | 0.00 | 0.00 | 0.00 | 60 | 1010.7 |
| 20260831201715 | 95 | 111 | 3.0 | 6.0 | 0.00 | 0.00 | 0.00 | 60 | 1010.7 |
| 20260831201218 | 95 | 63 | 4.0 | 10.0 | 0.00 | 0.00 | 0.00 | 60 | 1010.7 |
| 20260831200947 | 95 | 73 | 4.0 | 10.0 | 0.00 | 0.00 | 0.00 | 60 | 1010.8 |
| 20260831200210 | 95 | 167 | 4.0 | 8.0 | 0.00 | 0.00 | 0.00 | 61 | 1010.8 |
| 20260831195711 | 95 | 108 | 3.0 | 8.0 | 0.00 | 0.00 | 0.00 | 62 | 1010.7 |
| 20260831195211 | 94 | 82 | 3.0 | 7.0 | 0.00 | 0.00 | 0.00 | 63 | 1010.8 |
| 20260831194711 | 93 | 41 | 3.0 | 7.0 | 0.00 | 0.00 | 0.00 | 63 | 1010.9 |
| 20260831194211 | 93 | 103 | 2.0 | 6.0 | 0.00 | 0.00 | 0.00 | 61 | 1010.9 |
| 20260831193712 | 94 | 86 | 3.0 | 8.0 | 0.00 | 0.00 | 0.00 | 60 | 1011.1 |
| 20260831193206 | 94 | 86 | 3.0 | 8.0 | 0.00 | 0.00 | 0.00 | 57 | 1011.1 |
| 20260831192707 | 95 | 136 | 1.0 | 6.0 | 0.00 | 0.00 | 0.00 | 56 | 1011.1 |
| 20260831192208 | 95 | 136 | 1.0 | 4.0 | 0.00 | 0.00 | 0.00 | 55 | 1011.1 |
| 20260831191940 | 95 | 13 | 1.0 | 3.0 | 0.00 | 0.00 | 0.00 | 54 | 1011.3 |
| 20260831191208 | 94 | 153 | 2.0 | 6.0 | 0.00 | 0.00 | 0.00 | 56 | 1011.4 |
| 20260831190708 | 95 | 18 | 2.0 | 6.0 | 0.00 | 0.00 | 0.00 | 55 | 1011.4 |
| 20260831190202 | 96 | 84 | 2.0 | 5.0 | 0.00 | 0.00 | 0.00 | 54 | 1011.5 |
| 20260831185703 | 96 | 212 | 1.0 | 6.0 | 0.00 | 0.00 | 0.00 | 56 | 1011.5 |
| 20260831185209 | 96 | 93 | 2.0 | 7.0 | 0.00 | 0.00 | 0.00 | 55 | 1011.7 |
| 20260831185203 | 96 | 97 | 2.0 | 7.0 | 0.00 | 0.00 | 0.00 | 54 | 1011.6 |
| 20260831184202 | 96 | 64 | 2.0 | 4.0 | 0.00 | 0.00 | 0.00 | 55 | 1011.8 |
| 20260831183704 | 95 | 253 | 2.0 | 5.0 | 0.00 | 0.00 | 0.00 | 56 | 1011.7 |
| 20260831183158 | 94 | 113 | 3.0 | 6.0 | 0.00 | 0.00 | 0.00 | 56 | 1011.8 |
| 20260831182700 | 95 | 88 | 3.0 | 6.0 | 0.00 | 0.00 | 0.00 | 56 | 1011.8 |
| 20260831182158 | 96 | 103 | 2.0 | 5.0 | 0.00 | 0.00 | 0.00 | 55 | 1011.9 |
| 20260831181929 | 96 | 96 | 2.0 | 5.0 | 0.00 | 0.00 | 0.00 | 56 | 1012.0 |
| 20260831181159 | 95 | 293 | 2.0 | 5.0 | 0.00 | 0.00 | 0.00 | 57 | 1012.1 |
| 20260831180700 | 95 | 105 | 2.0 | 5.0 | 0.00 | 0.00 | 0.00 | 58 | 1012.2 |
| 20260831180158 | 95 | 115 | 2.0 | 5.0 | 0.00 | 0.00 | 0.00 | 56 | 1012.2 |
| 20260831175700 | 94 | 72 | 2.0 | 6.0 | 0.00 | 0.00 | 0.00 | 56 | 1012.3 |
| 20260831175159 | 95 | 72 | 2.0 | 6.0 | 0.00 | 0.00 | 0.00 | 56 | 1012.4 |
| 20260831174700 | 95 | 71 | 1.0 | 4.0 | 0.00 | 0.00 | 0.00 | 57 | 1012.4 |
| 20260831174157 | 95 | 349 | 1.0 | 4.0 | 0.00 | 0.00 | 0.00 | 58 | 1012.4 |
| 20260831173656 | 94 | 260 | 1.0 | 4.0 | 0.00 | 0.00 | 0.00 | 56 | 1012.4 |
| 20260831173153 | 94 | 108 | 1.0 | 4.0 | 0.00 | 0.00 | 0.00 | 56 | 1012.5 |
| 20260831172651 | 94 | 126 | 1.0 | 6.0 | 0.00 | 0.00 | 0.00 | 58 | 1012.6 |
| 20260831172152 | 93 | 83 | 2.0 | 6.0 | 0.00 | 0.00 | 0.00 | 56 | 1012.6 |
| 20260831171651 | 93 | 68 | 1.0 | 3.0 | 0.00 | 0.00 | 0.00 | 56 | 1012.7 |
| 20260831171150 | 93 | 107 | 2.0 | 7.0 | 0.00 | 0.00 | 0.00 | 52 | 1012.7 |
| 20260831170915 | 93 | 176 | 2.0 | 7.0 | 0.00 | 0.00 | 0.00 | 51 | 1012.6 |
| 20260831170144 | 93 | 75 | 1.0 | 4.0 | 0.00 | 0.00 | 0.00 | 55 | 1012.6 |
| 20260831165643 | 92 | 128 | 2.0 | 6.0 | 0.00 | 0.00 | 0.00 | 55 | 1012.7 |
| 20260831165143 | 92 | 87 | 2.0 | 6.0 | 0.00 | 0.00 | 0.00 | 56 | 1012.8 |
| 20260831164647 | 92 | 4 | 2.0 | 5.0 | 0.00 | 0.00 | 0.00 | 59 | 1012.8 |
| 20260831164143 | 92 | 44 | 1.0 | 4.0 | 0.00 | 0.00 | 0.00 | 60 | 1012.8 |
| 20260831163638 | 92 | 212 | 2.0 | 4.0 | 0.00 | 0.00 | 0.00 | 64 | 1012.7 |
| 20260831163139 | 91 | 78 | 1.0 | 3.0 | 0.00 | 0.00 | 0.00 | 65 | 1012.7 |
| 20260831162640 | 91 | 350 | 1.0 | 3.0 | 0.00 | 0.00 | 0.00 | 64 | 1012.7 |
| 20260831162137 | 90 | 317 | 1.0 | 3.0 | 0.00 | 0.00 | 0.00 | 68 | 1012.7 |
| 20260831161636 | 91 | 281 | 1.0 | 3.0 | 0.00 | 0.00 | 0.00 | 68 | 1012.8 |
| 20260831161134 | 91 | 240 | 1.0 | 3.0 | 0.00 | 0.00 | 0.00 | 69 | 1012.9 |
| 20260831160628 | 91 | 261 | 1.0 | 3.0 | 0.00 | 0.00 | 0.00 | 68 | 1012.9 |
| 20260831160126 | 91 | 272 | 0.0 | 2.0 | 0.00 | 0.00 | 0.00 | 69 | 1012.8 |
| 20260831155623 | 90 | 267 | 1.0 | 3.0 | 0.00 | 0.00 | 0.00 | 68 | 1012.8 |
| 20260831155122 | 90 | 234 | 1.0 | 3.0 | 0.00 | 0.00 | 0.00 | 68 | 1012.8 |
| 20260831154854 | 91 | 236 | 1.0 | 3.0 | 0.00 | 0.00 | 0.00 | 69 | 1012.9 |
| 20260831154122 | 91 | 239 | 0.0 | 2.0 | 0.00 | 0.00 | 0.00 | 69 | 1012.9 |
| 20260831153618 | 91 | 72 | 0.0 | 2.0 | 0.00 | 0.00 | 0.00 | 71 | 1012.9 |
| 20260831153119 | 90 | 63 | 0.0 | 2.0 | 0.00 | 0.00 | 0.00 | 71 | 1012.9 |
| 20260831152616 | 89 | 73 | 1.0 | 2.0 | 0.00 | 0.00 | 0.00 | 74 | 1012.9 |
| 20260831152118 | 89 | 72 | 1.0 | 3.0 | 0.00 | 0.00 | 0.00 | 74 | 1012.9 |
| 20260831151618 | 89 | 77 | 1.0 | 3.0 | 0.00 | 0.00 | 0.00 | 74 | 1012.8 |
| 20260831151117 | 89 | 311 | 1.0 | 4.0 | 0.00 | 0.00 | 0.00 | 75 | 1012.8 |
| 20260831150616 | 89 | 33 | 1.0 | 4.0 | 0.00 | 0.00 | 0.00 | 75 | 1012.8 |
| 20260831150114 | 89 | 124 | 1.0 | 4.0 | 0.00 | 0.00 | 0.00 | 78 | 1012.8 |
| 20260831145610 | 89 | 232 | 1.0 | 4.0 | 0.00 | 0.00 | 0.00 | 76 | 1012.8 |
| 20260831145108 | 90 | 86 | 0.0 | 2.0 | 0.00 | 0.00 | 0.00 | 75 | 1012.6 |
| 20260831144610 | 90 | 219 | 0.0 | 1.0 | 0.00 | 0.00 | 0.00 | 76 | 1012.5 |
| 20260831144109 | 89 | 219 | 0.0 | 0.0 | 0.00 | 0.00 | 0.00 | 77 | 1012.5 |
| 20260831143838 | 89 | 219 | 0.0 | 1.0 | 0.00 | 0.00 | 0.00 | 76 | 1012.6 |
| 20260831143338 | 89 | 209 | 0.0 | 1.0 | 0.00 | 0.00 | 0.00 | 79 | 1012.4 |
| 20260831142607 | 88 | 205 | 0.0 | 1.0 | 0.00 | 0.00 | 0.00 | 80 | 1012.5 |
| 20260831142105 | 87 | 90 | 0.0 | 2.0 | 0.00 | 0.00 | 0.00 | 81 | 1012.6 |
| 20260831141603 | 87 | 89 | 0.0 | 2.0 | 0.00 | 0.00 | 0.00 | 81 | 1012.5 |
| 20260831141103 | 87 | 89 | 0.0 | 0.0 | 0.00 | 0.00 | 0.00 | 82 | 1012.5 |
| 20260831140829 | 87 | 67 | 0.0 | 0.0 | 0.00 | 0.00 | 0.00 | 82 | 1012.5 |
| 20260831140055 | 86 | 64 | 0.0 | 0.0 | 0.00 | 0.00 | 0.00 | 83 | 1012.4 |
| 20260831135553 | 86 | 64 | 0.0 | 0.0 | 0.00 | 0.00 | 0.00 | 82 | 1012.4 |
| 20260831135051 | 85 | 20 | 0.0 | 0.0 | 0.00 | 0.00 | 0.00 | 85 | 1012.3 |
| 20260831134551 | 84 | 20 | 0.0 | 0.0 | 0.00 | 0.00 | 0.00 | 87 | 1012.3 |
| 20260831134318 | 83 | 20 | 0.0 | 0.0 | 0.00 | 0.00 | 0.00 | 87 | 1012.2 |
| 20260831133542 | 83 | 60 | 0.0 | 1.0 | 0.00 | 0.00 | 0.00 | 88 | 1012.3 |
| 20260831133041 | 83 | 60 | 0.0 | 1.0 | 0.00 | 0.00 | 0.00 | 88 | 1012.2 |
| 20260831132539 | 82 | 58 | 0.0 | 1.0 | 0.00 | 0.00 | 0.00 | 90 | 1012.3 |
| 20260831132038 | 82 | 68 | 0.0 | 1.0 | 0.00 | 0.00 | 0.00 | 91 | 1012.2 |
| 20260831131533 | 81 | 68 | 0.0 | 1.0 | 0.00 | 0.00 | 0.00 | 91 | 1012.1 |
| 20260831131031 | 80 | 68 | 0.0 | 1.0 | 0.00 | 0.00 | 0.00 | 94 | 1012.0 |
| 20260831130800 | 79 | 68 | 0.0 | 2.0 | 0.00 | 0.00 | 0.00 | 96 | 1012.1 |
| 20260831130028 | 78 | 68 | 0.0 | 2.0 | 0.00 | 0.00 | 0.00 | 96 | 1012.0 |
| 20260831125525 | 77 | 131 | 0.0 | 1.0 | 0.00 | 0.00 | 0.00 | 97 | 1011.9 |
| 20260831125022 | 77 | 218 | 0.0 | 1.0 | 0.00 | 0.00 | 0.00 | 97 | 1011.9 |
| 20260831124523 | 76 | 218 | 0.0 | 0.0 | 0.00 | 0.00 | 0.00 | 98 | 1011.8 |
| 20260831124256 | 76 | 218 | 0.0 | 0.0 | 0.00 | 0.00 | 0.00 | 97 | 1011.6 |
| 20260831123753 | 76 | 218 | 0.0 | 0.0 | 0.00 | 0.00 | 0.00 | 97 | 1011.5 |
| 20260831123019 | 75 | 218 | 0.0 | 0.0 | 0.00 | 0.00 | 0.00 | 97 | 1011.4 |
| 20260831122519 | 75 | 218 | 0.0 | 0.0 | 0.00 | 0.00 | 0.00 | 97 | 1011.3 |
| 20260831122013 | 75 | 218 | 0.0 | 0.0 | 0.00 | 0.00 | 0.00 | 97 | 1011.3 |
| 20260831121511 | 75 | 218 | 0.0 | 0.0 | 0.00 | 0.00 | 0.00 | 97 | 1011.3 |
| 20260831121009 | 75 | 218 | 0.0 | 0.0 | 0.00 | 0.00 | 0.00 | 97 | 1011.2 |
| 20260831120507 | 75 | 218 | 0.0 | 0.0 | 0.00 | 0.00 | 0.00 | 97 | 1011.1 |
| 20260831120007 | 75 | 218 | 0.0 | 0.0 | 0.00 | 0.00 | 0.00 | 97 | 1011.1 |
| 20260831115501 | 75 | 218 | 0.0 | 0.0 | 0.00 | 0.00 | 0.00 | 97 | 1011.2 |
| 20260831115000 | 75 | 219 | 0.0 | 0.0 | 0.00 | 0.00 | 0.00 | 97 | 1011.2 |
| 20260831114457 | 75 | 218 | 0.0 | 0.0 | 0.00 | 0.00 | 0.00 | 97 | 1011.2 |
| 20260831114227 | 75 | 218 | 0.0 | 0.0 | 0.00 | 0.00 | 0.00 | 97 | 1011.2 |
| 20260831113455 | 75 | 218 | 0.0 | 0.0 | 0.00 | 0.00 | 0.00 | 97 | 1011.2 |
| 20260831112949 | 76 | 218 | 0.0 | 0.0 | 0.00 | 0.00 | 0.00 | 97 | 1011.2 |
| 20260831112447 | 76 | 218 | 0.0 | 0.0 | 0.00 | 0.00 | 0.00 | 97 | 1011.2 |
| 20260831111946 | 76 | 218 | 0.0 | 0.0 | 0.00 | 0.00 | 0.00 | 97 | 1011.0 |
| 20260831111443 | 76 | 218 | 0.0 | 0.0 | 0.00 | 0.00 | 0.00 | 97 | 1011.0 |
| 20260831110943 | 76 | 218 | 0.0 | 0.0 | 0.00 | 0.00 | 0.00 | 97 | 1011.1 |
| 20260831110441 | 76 | 218 | 0.0 | 0.0 | 0.00 | 0.00 | 0.00 | 96 | 1011.1 |
| 20260831110212 | 76 | 218 | 0.0 | 0.0 | 0.00 | 0.00 | 0.00 | 96 | 1011.1 |
| 20260831105437 | 76 | 218 | 0.0 | 0.0 | 0.00 | 0.00 | 0.00 | 96 | 1011.0 |
| 20260831104935 | 76 | 218 | 0.0 | 0.0 | 0.00 | 0.00 | 0.00 | 97 | 1011.2 |
| 20260831104704 | 76 | 218 | 0.0 | 0.0 | 0.00 | 0.00 | 0.00 | 96 | 1011.0 |
| 20260831104201 | 76 | 218 | 0.0 | 0.0 | 0.00 | 0.00 | 0.00 | 96 | 1011.0 |
| 20260831104036 | 76 | 218 | 0.0 | 0.0 | 0.00 | 0.00 | 0.00 | 96 | 1011.0 |
| 20260831103157 | 76 | 218 | 0.0 | 0.0 | 0.00 | 0.00 | 0.00 | 96 | 1011.0 |
| 20260831102654 | 76 | 218 | 0.0 | 0.0 | 0.00 | 0.00 | 0.00 | 96 | 1011.0 |
| 20260831101921 | 76 | 218 | 0.0 | 0.0 | 0.00 | 0.00 | 0.00 | 96 | 1011.1 |
| 20260831101421 | 76 | 218 | 0.0 | 0.0 | 0.00 | 0.00 | 0.00 | 96 | 1011.1 |
| 20260831100918 | 76 | 218 | 0.0 | 0.0 | 0.00 | 0.00 | 0.00 | 96 | 1011.1 |
| 20260831100418 | 76 | 218 | 0.0 | 0.0 | 0.00 | 0.00 | 0.00 | 96 | 1011.2 |
| 20260831095919 | 76 | 218 | 0.0 | 0.0 | 0.00 | 0.00 | 0.00 | 96 | 1011.1 |
| 20260831095418 | 76 | 218 | 0.0 | 0.0 | 0.00 | 0.00 | 0.00 | 96 | 1011.1 |